ロビンソン彗星

C/2020 H5 ( Robinson )

English version
Home page
Updated on July 8, 2020

---------------------------------------------------------------------

・ プロフィール

発見日 2020年4月22日
発見光度 19.1等
発見者 James E. Robinson (Asteroid Terrestrial-Impact Last Alert System (ATLAS) search program)

・ 軌道要素

Epoch 2020 Dec. 17.0 TT = JDT 2459200.5
T 2020 Dec. 7.54877 TT                                  Rudenko
q   9.3491176            (2000.0)            P               Q
z  +0.0003667      Peri.  326.18110     -0.81083834     -0.33561115
 +/-0.0001084      Node   210.63440     -0.03137477     -0.79315175
e   0.9965719      Incl.   70.21728     -0.58442862     +0.50820807
From 58 observations 2020 Apr. 22-June 11, mean residual 0".4.

・ 光度変化

        m1 = 3.7 + 5 logΔ + 10.0 log r

---------------------------------------------------------------------

軌道要素はM.P.E.C. 2020-M114に掲載されたものです。
光度グラフはComet for Windowsで作成したものです。

---------------------------------------------------------------------

Copyright(C) Seiichi Yoshida (comet@aerith.net). All rights reserved.